Lawrence, MA

11:43 AM EDT on April 30, 2017 (GMT -0400)
Lawrence Municipal

Weather History for KLWM - January, 2013

Change the Weather History Date:

Monday, January 14, 2013

  Actual Average Record
Temperature  
Mean Temperature 52 °F -  
Max Temperature 62 °F 33 °F 64 °F (1932)
Min Temperature 41 °F 12 °F -20 °F (1957)
Degree Days  
Heating Degree Days 13    
Growing Degree Days 2 (Base 50)    
Moisture  
Dew Point 41 °F    
Average Humidity 67    
Maximum Humidity 89    
Minimum Humidity 36    
Precipitation  
Precipitation 0.00 in - - ()
Sea Level Pressure  
Sea Level Pressure 30.04 in    
Wind  
Wind Speed 9 mph (West)    
Max Wind Speed 15 mph    
Max Gust Speed 28 mph    
Visibility 10 miles    
Events      
Averages and records for this station are not official NWS values.
T = Trace of Precipitation, MM = Missing Value Source: NWS Daily Summary

Daily Weather History Graph

Daily Weather History Graph

Search for Another Location

Airport or City:

Trip Planner

Search our weather history database for the weather conditions in past years. The results will help you decide how hot, cold, wet, or windy it might be!

Date:

Astronomy

Jan. 14, 2013 Rise Set
Actual Time 7:12 AM EST 4:35 PM EST
Civil Twilight 6:41 AM EST 5:06 PM EST
Nautical Twilight 6:06 AM EST 5:41 PM EST
Astronomical Twilight 5:32 AM EST 6:15 PM EST
Moon 8:38 AM EST (1/14) 8:23 PM EST (1/14)
Length of Visible Light 10h 25m
Length of Day
9h 22m
Waxing Crescent, 11% of the Moon is Illuminated
Jan 14
Waxing Crescent
Jan 18
First Quarter
Jan 26
Full
Feb 3
Last Quarter
Feb 10
New

Hourly Weather History & Observations

Time (EST) Temp. Windchill Dew Point Humidity Pressure Visibility Wind Dir Wind Speed Gust Speed Precip Events Conditions
12:33 AM 51.8 °F - 46.4 °F 82% 30.00 in 10.0 mi SW 9.2 mph - N/A   Overcast
12:54 AM 52.0 °F - 46.9 °F 83% 29.99 in 10.0 mi SW 10.4 mph - N/A   Overcast
1:54 AM 51.1 °F - 48.0 °F 89% 29.99 in 10.0 mi SW 6.9 mph - N/A   Overcast
2:08 AM 51.8 °F - 48.2 °F 88% 29.99 in 9.0 mi SW 4.6 mph - N/A   Overcast
2:54 AM 51.1 °F - 48.0 °F 89% 29.99 in 8.0 mi SSW 5.8 mph - N/A   Overcast
3:54 AM 52.0 °F - 48.0 °F 86% 29.95 in 10.0 mi SW 10.4 mph - N/A   Overcast
4:54 AM 51.8 °F - 48.2 °F 88% 29.94 in 10.0 mi SW 10.4 mph - N/A   Overcast
5:54 AM 51.1 °F - 46.9 °F 86% 29.93 in 10.0 mi SSW 9.2 mph - N/A   Overcast
6:54 AM 52.0 °F - 48.0 °F 86% 29.88 in 10.0 mi SSW 12.7 mph 20.7 mph N/A   Overcast
7:54 AM 53.1 °F - 48.0 °F 83% 29.95 in 10.0 mi WSW 6.9 mph - N/A   Overcast
8:52 AM 53.6 °F - 48.2 °F 82% 29.97 in 10.0 mi WSW 6.9 mph - N/A   Overcast
8:54 AM 53.1 °F - 48.0 °F 83% 29.97 in 10.0 mi SW 6.9 mph - N/A   Mostly Cloudy
9:12 AM 53.6 °F - 48.2 °F 82% 29.97 in 10.0 mi SW 8.1 mph - N/A   Scattered Clouds
9:54 AM 55.0 °F - 48.9 °F 80% 30.00 in 10.0 mi WSW 9.2 mph - N/A   Scattered Clouds
10:01 AM 55.4 °F - 48.2 °F 77% 30.00 in 10.0 mi WSW 9.2 mph - N/A   Mostly Cloudy
10:47 AM 57.2 °F - 48.2 °F 72% 29.99 in 10.0 mi WSW 9.2 mph - N/A   Scattered Clouds
10:54 AM 57.0 °F - 48.9 °F 74% 29.99 in 10.0 mi SW 10.4 mph - N/A   Partly Cloudy
11:54 AM 57.9 °F - 48.0 °F 70% 29.98 in 10.0 mi WSW 10.4 mph - N/A   Clear
12:54 PM 62.1 °F - 45.0 °F 53% 29.97 in 10.0 mi West 10.4 mph - N/A   Clear
1:54 PM 62.1 °F - 41.0 °F 46% 30.01 in 10.0 mi West 15.0 mph 24.2 mph N/A   Clear
2:54 PM 60.1 °F - 34.0 °F 38% 30.05 in 10.0 mi NW 15.0 mph 24.2 mph N/A   Clear
3:54 PM 55.9 °F - 28.9 °F 36% 30.10 in 10.0 mi WNW 15.0 mph 27.6 mph N/A   Clear
4:54 PM 52.0 °F - 28.9 °F 41% 30.12 in 10.0 mi WNW 5.8 mph - N/A   Clear
5:54 PM 50.0 °F - 25.0 °F 38% 30.14 in 10.0 mi NW 4.6 mph - N/A   Clear
6:54 PM 48.0 °F - 24.1 °F 39% 30.15 in 10.0 mi NNW 5.8 mph - N/A   Clear
7:54 PM 46.0 °F 41.4 °F 25.0 °F 44% 30.19 in 10.0 mi NNW 9.2 mph - N/A   Clear
8:54 PM 45.0 °F 41.2 °F 26.1 °F 48% 30.22 in 10.0 mi NNW 6.9 mph - N/A   Scattered Clouds
9:54 PM 44.1 °F 39.5 °F 26.1 °F 49% 30.22 in 10.0 mi NNW 8.1 mph - N/A   Clear
10:54 PM 42.1 °F 37.7 °F 25.0 °F 51% 30.24 in 10.0 mi NW 6.9 mph - N/A   Clear
11:54 PM 41.0 °F 35.2 °F 23.0 °F 49% 30.27 in 10.0 mi NW 9.2 mph - N/A   Clear